,,PA_Meas_PMT16A,,PR_Meas_QMR101_102,,RH_Meas_QMH101,,SR_Meas_QMS101,,TA_Meas_QMH101,,GenWind,,GenWind,
time,status,PA,status,PR,status,RH,status,SR,status,TA,status,DirAvg,status,SpdAvg,
2016-12-30, 14:22:04,VALID,917.161,VALID,0,VALID,94.8277,VALID,193.502,VALID,20.6585,VALID,131,VALID,0,
2016-12-30, 14:23:04,VALID,917.179,VALID,0,VALID,93.8595,VALID,201.667,VALID,20.8356,VALID,136,VALID,0,
2016-12-30, 14:24:04,VALID,917.184,VALID,0,VALID,87.3034,VALID,208.114,VALID,20.873,VALID,147,VALID,0,
2016-12-30, 14:25:04,VALID,917.164,VALID,0,VALID,88.3706,VALID,212.411,VALID,20.9511,VALID,146,VALID,0,
2016-12-30, 14:26:04,VALID,917.217,VALID,0,VALID,86.2971,VALID,215.742,VALID,21.0697,VALID,161,VALID,0,
2016-12-30, 14:27:04,VALID,917.201,VALID,0,VALID,86.6401,VALID,220.039,VALID,21.0096,VALID,161,VALID,0,
2016-12-30, 14:28:04,VALID,917.181,VALID,0,VALID,87.2424,VALID,224.445,VALID,21.0291,VALID,157,VALID,1.40742,
2016-12-30, 14:29:04,VALID,917.195,VALID,0,VALID,86.6325,VALID,227.883,VALID,21.0681,VALID,146,VALID,1.72305,
2016-12-30, 14:30:04,VALID,917.241,VALID,0,VALID,87.1966,VALID,232.395,VALID,21.0291,VALID,154,VALID,1.43633,
2016-12-30, 14:31:04,VALID,917.248,VALID,0,VALID,85.8244,VALID,236.908,VALID,21.0291,VALID,152,VALID,1.95703,
2016-12-30, 14:32:04,VALID,917.287,VALID,0,VALID,87.7226,VALID,238.949,VALID,21.0291,VALID,170,VALID,1.2457,
2016-12-30, 14:33:04,VALID,917.288,VALID,0,VALID,86.7926,VALID,238.412,VALID,21.0876,VALID,156,VALID,1.67734,
2016-12-30, 14:34:04,VALID,917.313,VALID,0,VALID,84.376,VALID,237.338,VALID,21.1461,VALID,159,VALID,1.8625,
2016-12-30, 14:35:04,VALID,917.299,VALID,0,VALID,86.1294,VALID,235.618,VALID,21.2437,VALID,160,VALID,1.0457,
2016-12-30, 14:36:04,VALID,917.297,VALID,0,VALID,83.3011,VALID,232.932,VALID,21.2827,VALID,144,VALID,1.86133,
2016-12-30, 14:37:04,VALID,917.305,VALID,0,VALID,86.198,VALID,229.817,VALID,21.3998,VALID,151,VALID,1.27695,
2016-12-30, 14:38:04,VALID,917.344,VALID,0,VALID,83.4917,VALID,228.098,VALID,21.577,VALID,166,VALID,1.46094,
2016-12-30, 14:39:04,VALID,917.318,VALID,0,VALID,82.1118,VALID,228.957,VALID,21.6551,VALID,149,VALID,1.51523,
2016-12-30, 14:40:04,VALID,917.334,VALID,0,VALID,80.8463,VALID,230.354,VALID,21.6729,VALID,146,VALID,2.2043,
2016-12-30, 14:41:04,VALID,917.355,VALID,0,VALID,81.8679,VALID,225.949,VALID,21.6534,VALID,146,VALID,1.66875,
2016-12-30, 14:42:04,VALID,917.361,VALID,0,VALID,80.8768,VALID,205.642,VALID,21.6534,VALID,175,VALID,1.68594,
2016-12-30, 14:45:04,VALID,917.41,VALID,0,VALID,83.0342,VALID,181.79,VALID,21.5363,VALID,149,VALID,0.985547,
2016-12-30, 14:46:04,VALID,917.424,VALID,0,VALID,83.1562,VALID,233.899,VALID,21.5168,VALID,158,VALID,1.75508,
2016-12-30, 14:47:04,VALID,917.409,VALID,0,VALID,82.9961,VALID,234.329,VALID,21.5347,VALID,176,VALID,0.812109,
2016-12-30, 14:48:04,VALID,917.404,VALID,0,VALID,82.4854,VALID,246.148,VALID,21.5949,VALID,151,VALID,2.19453,
2016-12-30, 14:49:04,VALID,917.42,VALID,0,VALID,82.6073,VALID,250.016,VALID,21.6534,VALID,170,VALID,1.31875,
2016-12-30, 14:50:04,VALID,917.471,VALID,0,VALID,82.8437,VALID,251.627,VALID,21.6534,VALID,153,VALID,1.49883,
2016-12-30, 14:51:04,VALID,917.463,VALID,0,VALID,83.5526,VALID,249.586,VALID,21.7315,VALID,167,VALID,1.17188,
2016-12-30, 14:52:04,VALID,917.492,VALID,0,VALID,81.6392,VALID,255.388,VALID,21.829,VALID,174,VALID,1.2625,
2016-12-30, 14:53:04,VALID,917.501,VALID,0,VALID,81.0445,VALID,258.074,VALID,21.8664,VALID,167,VALID,1.24336,
2016-12-30, 14:54:04,VALID,917.542,VALID,0,VALID,81.0445,VALID,261.727,VALID,21.829,VALID,154,VALID,2.11836,
2016-12-30, 14:55:04,VALID,917.568,VALID,0,VALID,81.4714,VALID,267.206,VALID,21.7103,VALID,160,VALID,2.06758,
2016-12-30, 14:56:04,VALID,917.531,VALID,0,VALID,82.028,VALID,271.396,VALID,21.7493,VALID,166,VALID,1.62852,
2016-12-30, 14:57:04,VALID,917.564,VALID,0,VALID,78.7118,VALID,245.288,VALID,21.7315,VALID,154,VALID,2.03672,
2016-12-30, 14:59:04,VALID,917.552,VALID,0,VALID,80.5795,VALID,262.264,VALID,21.6908,VALID,143,VALID,2.09883,
2016-12-30, 15:00:04,VALID,917.556,VALID,0,VALID,80.7396,VALID,280.959,VALID,21.7315,VALID,156,VALID,1.84258,
2016-12-30, 15:01:04,VALID,917.562,VALID,0,VALID,81.0826,VALID,294.496,VALID,21.7688,VALID,139,VALID,1.59258,
2016-12-30, 15:02:04,VALID,917.565,VALID,0,VALID,79.1311,VALID,301.372,VALID,21.8859,VALID,132,VALID,1.96055,
2016-12-30, 15:03:04,VALID,917.56,VALID,0,VALID,80.4194,VALID,309.431,VALID,22.0225,VALID,164,VALID,1.70469,
2016-12-30, 15:04:04,VALID,917.573,VALID,0,VALID,79.3216,VALID,315.877,VALID,22.2583,VALID,164,VALID,0.94375,
2016-12-30, 15:05:04,VALID,917.598,VALID,0,VALID,76.9965,VALID,321.786,VALID,22.2779,VALID,152,VALID,2.14414,
2016-12-30, 15:06:04,VALID,917.56,VALID,0,VALID,78.7575,VALID,325.009,VALID,22.1591,VALID,168,VALID,1.68789,
2016-12-30, 15:07:04,VALID,917.608,VALID,0,VALID,78.4297,VALID,328.018,VALID,22.2567,VALID,152,VALID,2.21758,
2016-12-30, 15:08:04,VALID,917.605,VALID,0,VALID,78.9024,VALID,332.745,VALID,22.2371,VALID,167,VALID,1.2668,
2016-12-30, 15:09:04,VALID,917.601,VALID,0,VALID,78.8033,VALID,338.547,VALID,22.2762,VALID,143,VALID,1.77461,
2016-12-30, 15:10:04,VALID,917.615,VALID,0,VALID,79.6952,VALID,345.746,VALID,22.4128,VALID,159,VALID,1.29375,
2016-12-30, 15:11:04,VALID,917.641,VALID,0,VALID,77.4005,VALID,350.688,VALID,22.5689,VALID,170,VALID,1.39844,
2016-12-30, 15:12:04,VALID,917.635,VALID,0,VALID,75.7005,VALID,355.845,VALID,22.5884,VALID,164,VALID,1.95039,
2016-12-30, 15:13:04,VALID,917.641,VALID,0,VALID,75.5633,VALID,362.292,VALID,22.6062,VALID,162,VALID,1.67031,
2016-12-30, 15:14:04,VALID,917.652,VALID,0,VALID,75.9521,VALID,370.242,VALID,22.6647,VALID,154,VALID,1.65352,
2016-12-30, 15:15:04,VALID,917.657,VALID,0,VALID,75.0678,VALID,380.234,VALID,22.8226,VALID,171,VALID,1.22227,
2016-12-30, 15:16:04,VALID,917.669,VALID,0,VALID,75.5023,VALID,390.441,VALID,22.9983,VALID,152,VALID,0.929297,
2016-12-30, 15:17:04,VALID,917.712,VALID,0,VALID,72.8189,VALID,398.284,VALID,22.977,VALID,157,VALID,2.37969,
2016-12-30, 15:18:04,VALID,917.741,VALID,0,VALID,73.0171,VALID,404.194,VALID,22.8989,VALID,170,VALID,1.62891,
2016-12-30, 15:19:04,VALID,917.715,VALID,0,VALID,72.4225,VALID,410.318,VALID,22.9397,VALID,164,VALID,1.73047,
2016-12-30, 15:20:04,VALID,917.724,VALID,0,VALID,73.7718,VALID,416.979,VALID,23.0746,VALID,174,VALID,1.13555,
2016-12-30, 15:21:04,VALID,917.772,VALID,0,VALID,71.7211,VALID,422.673,VALID,23.2502,VALID,152,VALID,2.44766,
2016-12-30, 15:22:04,VALID,917.761,VALID,0,VALID,71.2103,VALID,433.31,VALID,23.1527,VALID,150,VALID,2.14258,
2016-12-30, 15:23:04,VALID,917.794,VALID,0,VALID,69.3731,VALID,450.393,VALID,23.1722,VALID,150,VALID,1.96055,
2016-12-30, 15:24:04,VALID,917.78,VALID,0,VALID,71.0426,VALID,437.178,VALID,23.307,VALID,187,VALID,1.31094,
2016-12-30, 15:25:04,VALID,917.801,VALID,0,VALID,69.1063,VALID,345.853,VALID,23.543,VALID,140,VALID,1.52188,
2016-12-30, 15:26:04,VALID,917.816,VALID,0,VALID,69.1673,VALID,308.678,VALID,23.6602,VALID,172,VALID,1.70313,
2016-12-30, 15:27:04,VALID,917.816,VALID,0,VALID,68.2372,VALID,311.042,VALID,23.6992,VALID,180,VALID,1.3332,
2016-12-30, 15:28:04,VALID,917.774,VALID,0,VALID,67.7645,VALID,230.891,VALID,23.6992,VALID,166,VALID,1.53516,
2016-12-30, 15:29:04,VALID,917.799,VALID,0,VALID,68.4964,VALID,197.907,VALID,23.4863,VALID,165,VALID,1.56484,
2016-12-30, 15:30:04,VALID,917.825,VALID,0,VALID,69.9448,VALID,201.989,VALID,23.3887,VALID,158,VALID,1.03164,
2016-12-30, 15:31:04,VALID,917.832,VALID,0,VALID,71.0426,VALID,208.221,VALID,23.3478,VALID,173,VALID,0.701953,
2016-12-30, 15:32:04,VALID,917.844,VALID,0,VALID,70.0668,VALID,215.312,VALID,23.3283,VALID,135,VALID,1.60859,
2016-12-30, 15:33:04,VALID,917.858,VALID,0,VALID,70.6767,VALID,238.734,VALID,23.1509,VALID,161,VALID,1.53906,
2016-12-30, 15:34:04,VALID,917.858,VALID,0,VALID,72.3615,VALID,323.076,VALID,23.1119,VALID,168,VALID,0.628906,
2016-12-30, 15:35:04,VALID,917.855,VALID,0,VALID,69.5865,VALID,354.663,VALID,23.1314,VALID,163,VALID,1.83164,
2016-12-30, 15:36:04,VALID,917.863,VALID,0,VALID,72.3843,VALID,384.532,VALID,23.1704,VALID,156,VALID,1.76523,
2016-12-30, 15:37:04,VALID,917.865,VALID,0,VALID,73.444,VALID,490.361,VALID,23.2698,VALID,174,VALID,1.0168,
2016-12-30, 15:38:04,VALID,917.866,VALID,0,VALID,70.8673,VALID,507.337,VALID,23.543,VALID,130,VALID,1.73594,
2016-12-30, 15:39:04,VALID,917.874,VALID,0,VALID,67.574,VALID,449.104,VALID,23.6974,VALID,97,VALID,2.16367,
2016-12-30, 15:40:04,VALID,917.874,VALID,0,VALID,69.1825,VALID,354.126,VALID,23.5998,VALID,93,VALID,2.05312,
2016-12-30, 15:41:04,VALID,917.866,VALID,0,VALID,71.3857,VALID,314.91,VALID,23.5022,VALID,90,VALID,1.68438,
2016-12-30, 15:42:04,VALID,917.868,VALID,0,VALID,70.5318,VALID,335.646,VALID,23.4241,VALID,86,VALID,1.58984,
2016-12-30, 15:43:04,VALID,917.895,VALID,0,VALID,72.2852,VALID,282.463,VALID,23.4632,VALID,113,VALID,1.35078,
2016-12-30, 15:44:04,VALID,917.886,VALID,0,VALID,71.3704,VALID,339.192,VALID,23.465,VALID,94,VALID,1.20352,
2016-12-30, 15:45:04,VALID,917.851,VALID,0,VALID,70.448,VALID,385.606,VALID,23.5253,VALID,108,VALID,1.30039,
2016-12-30, 15:46:04,VALID,917.899,VALID,0,VALID,70.0973,VALID,398.177,VALID,23.5626,VALID,84,VALID,0.7875,
2016-12-30, 15:47:04,VALID,917.871,VALID,0,VALID,70.8063,VALID,405.483,VALID,23.7382,VALID,166,VALID,1.22969,
2016-12-30, 15:48:04,VALID,917.905,VALID,0,VALID,69.03,VALID,437.071,VALID,23.9121,VALID,156,VALID,0.122656,
2016-12-30, 15:49:04,VALID,917.908,VALID,0,VALID,67.0174,VALID,337.58,VALID,24.1677,VALID,115,VALID,0,
2016-12-30, 15:50:04,VALID,917.893,VALID,0,VALID,67.4596,VALID,301.91,VALID,23.9725,VALID,110,VALID,0,
2016-12-30, 15:51:04,VALID,917.88,VALID,0,VALID,69.0529,VALID,412.896,VALID,23.8358,VALID,114,VALID,0,
2016-12-30, 15:52:04,VALID,917.927,VALID,0,VALID,69.0986,VALID,320.497,VALID,23.8554,VALID,105,VALID,2.9457,
2016-12-30, 15:53:04,VALID,917.912,VALID,0,VALID,68.7403,VALID,321.356,VALID,23.7187,VALID,130,VALID,1.43516,
2016-12-30, 15:54:04,VALID,917.904,VALID,0,VALID,69.3502,VALID,396.458,VALID,23.7773,VALID,109,VALID,0,
2016-12-30, 15:55:04,VALID,917.931,VALID,0,VALID,70.6462,VALID,269.462,VALID,23.795,VALID,95,VALID,2.10703,
2016-12-30, 15:56:04,VALID,917.924,VALID,0,VALID,67.1775,VALID,252.702,VALID,23.6584,VALID,97,VALID,2.10078,
2016-12-30, 15:57:04,VALID,917.95,VALID,0,VALID,69.0453,VALID,269.785,VALID,23.6211,VALID,122,VALID,1.22461,
2016-12-30, 15:58:04,VALID,917.943,VALID,0,VALID,68.1457,VALID,259.793,VALID,23.6797,VALID,127,VALID,0.856641,
2016-12-30, 15:59:04,VALID,917.953,VALID,0,VALID,69.5179,VALID,290.951,VALID,23.7364,VALID,133,VALID,0,
2016-12-30, 16:00:04,VALID,917.921,VALID,0,VALID,69.5027,VALID,332.101,VALID,23.9121,VALID,117,VALID,0,
2016-12-30, 16:01:04,VALID,917.948,VALID,0,VALID,68.3439,VALID,281.066,VALID,23.9725,VALID,140,VALID,0.00351562,
2016-12-30, 16:02:04,VALID,917.913,VALID,0,VALID,69.3578,VALID,279.992,VALID,23.9316,VALID,130,VALID,1.04023,
2016-12-30, 16:03:04,VALID,917.949,VALID,0,VALID,68.3744,VALID,290.628,VALID,23.9512,VALID,136,VALID,1.10273,
2016-12-30, 16:04:04,VALID,917.952,VALID,0,VALID,68.6031,VALID,246.363,VALID,23.9316,VALID,167,VALID,0.358203,
2016-12-30, 16:05:04,VALID,917.92,VALID,0,VALID,71.2713,VALID,243.999,VALID,23.9139,VALID,67,VALID,2.03711,
2016-12-30, 16:06:04,VALID,917.948,VALID,0,VALID,69.9372,VALID,398.177,VALID,23.6992,VALID,81,VALID,2.18164,
2016-12-30, 16:07:04,VALID,918.001,VALID,0,VALID,71.3857,VALID,375.292,VALID,23.6992,VALID,74,VALID,0.867578,
2016-12-30, 16:08:04,VALID,917.961,VALID,0,VALID,71.7897,VALID,395.706,VALID,23.8536,VALID,80,VALID,1.40508,
2016-12-30, 16:09:04,VALID,917.969,VALID,0,VALID,68.8547,VALID,393.449,VALID,23.9121,VALID,74,VALID,1.93125,
2016-12-30, 16:10:04,VALID,917.989,VALID,0,VALID,68.6641,VALID,315.447,VALID,23.992,VALID,61,VALID,2.11016,
2016-12-30, 16:11:04,VALID,918.002,VALID,0,VALID,71.3628,VALID,256.999,VALID,23.9725,VALID,65,VALID,1.54727,
2016-12-30, 16:12:04,VALID,917.997,VALID,0,VALID,66.2932,VALID,224.445,VALID,23.992,VALID,120,VALID,2.31797,
2016-12-30, 16:13:04,VALID,918.001,VALID,0,VALID,66.1484,VALID,256.247,VALID,23.992,VALID,97,VALID,1.67852,
2016-12-30, 16:14:04,VALID,917.976,VALID,0,VALID,64.9744,VALID,219.287,VALID,24.1873,VALID,82,VALID,1.05742,
2016-12-30, 16:15:04,VALID,917.98,VALID,0,VALID,64.86,VALID,200.27,VALID,24.3611,VALID,87,VALID,0,
2016-12-30, 16:16:04,VALID,918,VALID,0,VALID,65.6452,VALID,201.989,VALID,24.4392,VALID,70,VALID,0,
2016-12-30, 16:17:04,VALID,917.986,VALID,0,VALID,64.8448,VALID,210.262,VALID,24.6345,VALID,151,VALID,0.00429688,
2016-12-30, 16:18:04,VALID,918.021,VALID,0,VALID,63.8918,VALID,214.238,VALID,24.8102,VALID,178,VALID,0,
2016-12-30, 16:19:04,VALID,918.016,VALID,0,VALID,65.7062,VALID,216.279,VALID,25.0855,VALID,175,VALID,0,
2016-12-30, 16:20:04,VALID,918.041,VALID,0,VALID,62.8779,VALID,218.858,VALID,25.2203,VALID,183,VALID,0.330859,
2016-12-30, 16:21:04,VALID,918.015,VALID,0,VALID,60.812,VALID,225.734,VALID,25.2593,VALID,136,VALID,0.611719,
2016-12-30, 16:22:04,VALID,917.991,VALID,0,VALID,62.573,VALID,222.726,VALID,25.2788,VALID,189,VALID,1.10078,
2016-12-30, 16:23:04,VALID,918.01,VALID,0,VALID,61.277,VALID,218.858,VALID,25.2984,VALID,195,VALID,0.642578,
2016-12-30, 16:24:04,VALID,917.992,VALID,0,VALID,62.0699,VALID,217.031,VALID,25.3355,VALID,193,VALID,1.38008,
2016-12-30, 16:25:04,VALID,918.014,VALID,0,VALID,62.0927,VALID,211.552,VALID,25.357,VALID,128,VALID,0.0980469,
2016-12-30, 16:26:04,VALID,918.011,VALID,0,VALID,60.1716,VALID,207.684,VALID,25.3179,VALID,107,VALID,1.24297,
2016-12-30, 16:27:04,VALID,918.034,VALID,0,VALID,61.1093,VALID,207.469,VALID,25.2593,VALID,162,VALID,0.757031,
2016-12-30, 16:28:04,VALID,918.021,VALID,0,VALID,60.8958,VALID,208.006,VALID,25.1031,VALID,132,VALID,0.0957031,
2016-12-30, 16:29:04,VALID,918.075,VALID,0,VALID,62.7331,VALID,196.295,VALID,25.064,VALID,145,VALID,0.00117188,
2016-12-30, 16:30:04,VALID,918.034,VALID,0,VALID,61.4524,VALID,189.956,VALID,25.2007,VALID,185,VALID,1.26602,
2016-12-30, 16:31:04,VALID,918.048,VALID,0,VALID,60.9949,VALID,187.7,VALID,25.2593,VALID,193,VALID,0,
2016-12-30, 16:32:04,VALID,918.069,VALID,0,VALID,60.9492,VALID,186.948,VALID,25.4136,VALID,123,VALID,1.1125,
2016-12-30, 16:33:04,VALID,918.034,VALID,0,VALID,62.2681,VALID,182.005,VALID,25.5132,VALID,118,VALID,0.0574219,
2016-12-30, 16:34:04,VALID,918.037,VALID,0,VALID,61.7039,VALID,175.559,VALID,25.4937,VALID,133,VALID,0,
2016-12-30, 16:35:04,VALID,918.066,VALID,0,VALID,60.3088,VALID,170.079,VALID,25.2984,VALID,115,VALID,1.08398,
2016-12-30, 16:36:04,VALID,918.087,VALID,0,VALID,61.0941,VALID,179.856,VALID,25.2007,VALID,122,VALID,1.8707,
2016-12-30, 16:37:04,VALID,918.081,VALID,0,VALID,61.2541,VALID,211.014,VALID,25.1226,VALID,103,VALID,0.189063,
2016-12-30, 16:38:04,VALID,918.062,VALID,0,VALID,60.4994,VALID,271.826,VALID,25.1031,VALID,109,VALID,2.30508,
2016-12-30, 16:39:04,VALID,918.059,VALID,0,VALID,61.6277,VALID,342.737,VALID,24.9255,VALID,113,VALID,0,
2016-12-30, 16:40:04,VALID,918.061,VALID,0,VALID,63.4878,VALID,422.888,VALID,25.025,VALID,170,VALID,1.99844,
2016-12-30, 16:41:04,VALID,918.057,VALID,0,VALID,61.8793,VALID,482.088,VALID,25.1031,VALID,165,VALID,1.2707,
2016-12-30, 16:42:04,VALID,918.021,VALID,0,VALID,63.1829,VALID,518.726,VALID,25.1617,VALID,118,VALID,0.371094,
2016-12-30, 16:43:04,VALID,918.058,VALID,0,VALID,62.634,VALID,422.029,VALID,25.0621,VALID,132,VALID,0.182031,
2016-12-30, 16:44:04,VALID,918.058,VALID,0,VALID,62.169,VALID,564.066,VALID,25.1012,VALID,109,VALID,1.31172,
2016-12-30, 16:45:04,VALID,918.067,VALID,0,VALID,63.0075,VALID,577.604,VALID,25.0817,VALID,151,VALID,2.1375,
2016-12-30, 16:46:04,VALID,918.053,VALID,0,VALID,63.2515,VALID,577.281,VALID,24.9645,VALID,155,VALID,0.424609,
2016-12-30, 16:47:04,VALID,918.067,VALID,0,VALID,61.0636,VALID,571.479,VALID,25.0231,VALID,172,VALID,1.50664,
2016-12-30, 16:48:04,VALID,918.013,VALID,0,VALID,61.1322,VALID,583.62,VALID,25.1812,VALID,145,VALID,0.282422,
2016-12-30, 16:49:04,VALID,918.029,VALID,0,VALID,61.1932,VALID,592.431,VALID,25.2379,VALID,158,VALID,0.0925781,
2016-12-30, 16:50:04,VALID,918.041,VALID,0,VALID,62.0775,VALID,600.059,VALID,25.4136,VALID,155,VALID,0.913281,
2016-12-30, 16:51:04,VALID,918.04,VALID,0,VALID,61.399,VALID,602.423,VALID,25.2574,VALID,132,VALID,2.2543,
2016-12-30, 16:52:04,VALID,918.044,VALID,0,VALID,61.8793,VALID,604.249,VALID,25.1031,VALID,139,VALID,0.731641,
2016-12-30, 16:53:04,VALID,918.073,VALID,0,VALID,61.0864,VALID,599.414,VALID,25.2007,VALID,163,VALID,1.62578,
2016-12-30, 16:54:04,VALID,918.054,VALID,0,VALID,61.5972,VALID,604.571,VALID,25.2769,VALID,103,VALID,0.867969,
2016-12-30, 16:55:04,VALID,918.06,VALID,0,VALID,61.4219,VALID,607.365,VALID,25.4917,VALID,16,VALID,0.00585938,
2016-12-30, 16:56:04,VALID,918.059,VALID,0,VALID,60.103,VALID,603.927,VALID,25.8042,VALID,60,VALID,0.06875,
2016-12-30, 16:57:04,VALID,918.034,VALID,0,VALID,60.6062,VALID,595.761,VALID,26.0776,VALID,47,VALID,1.74102,
2016-12-30, 16:58:04,VALID,918.055,VALID,0,VALID,57.7702,VALID,573.306,VALID,26.4097,VALID,14,VALID,0,
2016-12-30, 16:59:04,VALID,918.055,VALID,0,VALID,58.0447,VALID,582.653,VALID,26.6657,VALID,58,VALID,0,
2016-12-30, 17:00:04,VALID,918.091,VALID,0,VALID,57.5644,VALID,594.042,VALID,26.6657,VALID,172,VALID,0.963672,
2016-12-30, 17:01:04,VALID,918.087,VALID,0,VALID,56.2761,VALID,628.208,VALID,26.1382,VALID,154,VALID,1.59766,
2016-12-30, 17:02:04,VALID,918.1,VALID,0,VALID,58.3954,VALID,593.827,VALID,26.0015,VALID,166,VALID,0.282031,
2016-12-30, 17:03:04,VALID,918.084,VALID,0,VALID,58.9595,VALID,481.014,VALID,26.0601,VALID,130,VALID,1.96641,
2016-12-30, 17:04:04,VALID,918.116,VALID,0,VALID,60.286,VALID,424.5,VALID,25.7105,VALID,140,VALID,0.506641,
2016-12-30, 17:05:04,VALID,918.068,VALID,0,VALID,60.0801,VALID,402.689,VALID,25.7671,VALID,135,VALID,0,
2016-12-30, 17:06:04,VALID,918.028,VALID,0,VALID,59.5694,VALID,352.514,VALID,25.8257,VALID,161,VALID,1.12617,
2016-12-30, 17:07:04,VALID,918.059,VALID,0,VALID,61.3075,VALID,481.121,VALID,25.6694,VALID,136,VALID,2.24961,
2016-12-30, 17:08:04,VALID,917.99,VALID,0,VALID,59.9124,VALID,258.396,VALID,25.4741,VALID,158,VALID,0,
2016-12-30, 17:09:04,VALID,917.97,VALID,0,VALID,61.6201,VALID,344.349,VALID,25.396,VALID,194,VALID,1.20117,
2016-12-30, 17:10:04,VALID,917.986,VALID,0,VALID,61.742,VALID,710.831,VALID,25.4156,VALID,195,VALID,0,
2016-12-30, 17:11:04,VALID,917.995,VALID,0,VALID,62.8017,VALID,710.186,VALID,25.5523,VALID,155,VALID,0.9125,
2016-12-30, 17:12:04,VALID,918.026,VALID,0,VALID,59.8286,VALID,717.707,VALID,25.73,VALID,123,VALID,0.380859,
2016-12-30, 17:13:04,VALID,918.001,VALID,0,VALID,59.455,VALID,721.79,VALID,25.6499,VALID,128,VALID,0.575781,
2016-12-30, 17:14:04,VALID,917.995,VALID,0,VALID,60.0268,VALID,728.773,VALID,25.7866,VALID,186,VALID,0.628125,
2016-12-30, 17:15:04,VALID,917.975,VALID,0,VALID,59.6761,VALID,726.087,VALID,26.0406,VALID,165,VALID,0,
2016-12-30, 17:16:04,VALID,917.969,VALID,0,VALID,57.7169,VALID,720.715,VALID,26.1382,VALID,115,VALID,3.03047,
2016-12-30, 17:17:04,VALID,917.988,VALID,0,VALID,58.22,VALID,712.979,VALID,26.0992,VALID,205,VALID,0.0195313,
2016-12-30, 17:18:04,VALID,917.95,VALID,0,VALID,58.6774,VALID,706.748,VALID,26.1773,VALID,142,VALID,0.383594,
2016-12-30, 17:19:04,VALID,917.941,VALID,0,VALID,61.1398,VALID,702.128,VALID,26.2945,VALID,68,VALID,2.08125,
2016-12-30, 17:20:04,VALID,917.982,VALID,0,VALID,60.8882,VALID,702.021,VALID,26.1773,VALID,135,VALID,0.146875,
2016-12-30, 17:21:04,VALID,917.943,VALID,0,VALID,60.8349,VALID,702.021,VALID,26.1773,VALID,141,VALID,1.37109,
2016-12-30, 17:22:04,VALID,917.973,VALID,0,VALID,59.3407,VALID,697.723,VALID,26.1578,VALID,167,VALID,2.03594,
2016-12-30, 17:23:04,VALID,917.92,VALID,0,VALID,60.4613,VALID,703.095,VALID,26.1382,VALID,130,VALID,2.73867,
2016-12-30, 17:24:04,VALID,917.982,VALID,0,VALID,58.4335,VALID,702.558,VALID,25.8843,VALID,98,VALID,2.29805,
2016-12-30, 17:25:04,VALID,917.919,VALID,0,VALID,62.9084,VALID,703.525,VALID,25.689,VALID,123,VALID,1.31523,
2016-12-30, 17:26:04,VALID,917.901,VALID,0,VALID,59.4398,VALID,701.268,VALID,25.689,VALID,136,VALID,0.781641,
2016-12-30, 17:27:04,VALID,917.885,VALID,0,VALID,61.3837,VALID,697.938,VALID,25.689,VALID,64,VALID,0,
2016-12-30, 17:28:04,VALID,917.911,VALID,0,VALID,59.7371,VALID,698.367,VALID,26.019,VALID,148,VALID,0,
2016-12-30, 17:29:04,VALID,917.87,VALID,0,VALID,60.3546,VALID,697.078,VALID,26.0992,VALID,79,VALID,0.15,
2016-12-30, 17:30:04,VALID,917.868,VALID,0,VALID,60.5757,VALID,723.186,VALID,26.0601,VALID,112,VALID,0,
2016-12-30, 17:31:04,VALID,917.855,VALID,0,VALID,60.9263,VALID,741.022,VALID,26.1773,VALID,46,VALID,1.13398,
2016-12-30, 17:32:04,VALID,917.867,VALID,0,VALID,60.7053,VALID,751.014,VALID,26.1773,VALID,114,VALID,2.90508,
2016-12-30, 17:33:04,VALID,917.854,VALID,0,VALID,58.4945,VALID,755.526,VALID,26.0796,VALID,51,VALID,2.87734,
2016-12-30, 17:34:04,VALID,917.813,VALID,0,VALID,60.6519,VALID,758.427,VALID,25.8843,VALID,71,VALID,2.05312,
2016-12-30, 17:35:04,VALID,917.851,VALID,0,VALID,60.1335,VALID,761.865,VALID,25.8648,VALID,46,VALID,1.28008,
2016-12-30, 17:36:04,VALID,917.816,VALID,0,VALID,61.5438,VALID,757.353,VALID,25.8823,VALID,26,VALID,0.737891,
2016-12-30, 17:37:04,VALID,917.805,VALID,0,VALID,58.746,VALID,266.884,VALID,26.0406,VALID,2,VALID,0.432422,
2016-12-30, 17:38:04,VALID,917.799,VALID,0,VALID,59.0815,VALID,267.851,VALID,26.0776,VALID,346,VALID,0,
2016-12-30, 17:39:04,VALID,917.781,VALID,0,VALID,60.1869,VALID,699.872,VALID,26.0972,VALID,28,VALID,2.10156,
2016-12-30, 17:40:04,VALID,917.769,VALID,0,VALID,59.5465,VALID,792.164,VALID,26.1578,VALID,329,VALID,0.0195313,
2016-12-30, 17:41:04,VALID,917.765,VALID,0,VALID,60.5071,VALID,814.082,VALID,26.2945,VALID,1,VALID,0.0867188,
2016-12-30, 17:42:04,VALID,917.717,VALID,0,VALID,61.6353,VALID,753.485,VALID,26.4292,VALID,85,VALID,2.12617,
2016-12-30, 17:43:04,VALID,917.732,VALID,0,VALID,61.4905,VALID,613.489,VALID,26.4508,VALID,49,VALID,2.49727,
2016-12-30, 17:44:04,VALID,917.714,VALID,0,VALID,62.6645,VALID,785.18,VALID,26.4488,VALID,53,VALID,3.37891,
2016-12-30, 17:45:04,VALID,917.763,VALID,0,VALID,60.5147,VALID,902.721,VALID,26.5074,VALID,61,VALID,2.25547,
2016-12-30, 17:46:04,VALID,917.737,VALID,0,VALID,62.3443,VALID,796.354,VALID,26.5855,VALID,70,VALID,0.475,
2016-12-30, 17:47:04,VALID,917.75,VALID,0,VALID,56.9012,VALID,846.851,VALID,26.4488,VALID,130,VALID,1.7125,
2016-12-30, 17:48:04,VALID,917.747,VALID,0,VALID,59.2949,VALID,898.96,VALID,26.314,VALID,127,VALID,2.7168,
2016-12-30, 17:49:04,VALID,917.749,VALID,0,VALID,58.1514,VALID,677.631,VALID,26.4117,VALID,146,VALID,2.02266,
2016-12-30, 17:50:04,VALID,917.742,VALID,0,VALID,61.3228,VALID,926.358,VALID,26.4117,VALID,140,VALID,1.50664,
2016-12-30, 17:51:04,VALID,917.708,VALID,0,VALID,57.9532,VALID,926.787,VALID,26.5464,VALID,80,VALID,0,
2016-12-30, 17:52:04,VALID,917.688,VALID,0,VALID,60.7434,VALID,689.557,VALID,26.7027,VALID,73,VALID,0.242578,
2016-12-30, 17:53:04,VALID,917.745,VALID,0,VALID,57.4958,VALID,924.209,VALID,26.4683,VALID,129,VALID,2.62227,
2016-12-30, 17:54:04,VALID,917.711,VALID,0,VALID,59.0662,VALID,638.845,VALID,26.2925,VALID,109,VALID,2.81094,
2016-12-30, 17:55:04,VALID,917.724,VALID,0,VALID,62.3443,VALID,623.911,VALID,26.273,VALID,76,VALID,2.68906,
2016-12-30, 17:56:04,VALID,917.739,VALID,0,VALID,58.5021,VALID,500.139,VALID,26.1167,VALID,55,VALID,1.56445,
2016-12-30, 17:57:04,VALID,917.702,VALID,0,VALID,61.1932,VALID,426.326,VALID,26.0776,VALID,277,VALID,0.0105469,
2016-12-30, 17:58:04,VALID,917.728,VALID,0,VALID,60.629,VALID,392.16,VALID,26.2339,VALID,138,VALID,0.123828,
2016-12-30, 17:59:04,VALID,917.722,VALID,0,VALID,59.1425,VALID,432.88,VALID,26.1948,VALID,175,VALID,0.358594,
2016-12-30, 18:00:04,VALID,917.687,VALID,0,VALID,59.0357,VALID,539.677,VALID,26.1167,VALID,170,VALID,0.574219,